RH
7 6 7 7 6 7 6 5 6 5 5 6 5 6 7 8 23 59 90 100 103 105 103 102 103 104 102 101 98 95 91 86 80 76 70 66 63 59 56 53 48 47 46 43 35 24 21 25 32 45 54 56 60 63 75 90 98 100 100 100 101 99 103 101 87 92 105 102 96 88 62 41 39 34 28 27 23 21 20 19 25 34 46 56 56
8 7 7 7 7 7 6 6 6 6 6 5 6 8 11 17 35 68 94 100 100 103 102 102 102 103 103 102 102 99 92 86 81 76 72 68 64 59 55 53 49 49 47 40 30 23 26 32 43 61 67 64 68 76 87 95 98 101 101 99 102 99 100 103 96 93 103 104 98 92 72 48 45 46 36 27 24 22 20 22 37 57 70 74 69
8 8 8 8 8 7 7 7 6 7 7 5 8 13 18 32 59 87 101 100 100 101 102 102 101 103 103 101 102 100 92 86 81 76 72 68 63 58 55 53 51 50 46 35 28 30 36 41 55 74 75 67 74 87 96 99 97 99 101 99 100 101 99 102 100 96 102 106 99 92 79 58 52 56 46 32 28 26 29 40 62 81 84 77 65
9 9 9 8 8 8 7 8 7 7 7 6 12 20 31 54 82 98 101 100 101 101 101 103 101 101 103 101 101 99 94 87 82 77 72 67 63 59 56 54 53 52 42 30 33 43 47 50 67 84 76 69 83 96 99 99 97 99 101 100 100 100 100 101 100 99 103 107 102 94 89 74 61 58 50 37 33 36 51 72 88 95 87 70 52
10 9 9 9 9 9 9 9 8 8 7 10 20 34 52 78 96 100 100 100 101 100 100 101 101 100 102 102 101 100 97 90 84 78 73 68 64 60 58 57 56 51 35 28 44 58 55 58 77 89 77 70 84 98 100 100 100 101 100 100 101 100 100 101 101 102 103 104 103 98 97 87 69 60 54 42 41 54 79 94 96 96 83 59 38
11 10 10 10 9 9 10 9 9 9 8 16 34 52 72 94 101 99 100 101 100 101 101 100 102 102 101 103 103 101 100 93 85 80 74 69 65 62 62 61 58 48 28 30 59 68 58 66 87 92 79 70 80 95 102 100 99 101 100 100 101 100 100 101 102 104 99 97 101 101 99 91 76 70 63 50 53 72 94 101 96 93 76 45 25
11 11 10 11 11 10 11 10 10 9 10 24 48 66 81 95 101 100 100 100 100 101 100 100 102 103 101 103 103 102 101 94 85 80 75 72 69 67 67 63 58 43 23 37 73 72 59 76 95 94 84 76 78 88 98 101 100 100 100 99 100 100 100 100 102 103 96 94 102 103 101 97 87 81 73 64 71 87 98 102 98 85 60 30 16
12 12 11 11 11 12 11 10 10 8 12 32 57 73 83 92 99 101 100 100 100 101 101 100 101 102 102 103 103 100 98 92 86 82 79 78 75 72 71 63 55 37 20 46 83 72 60 85 101 98 94 89 85 85 87 91 92 91 92 94 99 100 100 100 102 104 98 96 102 103 103 103 94 86 80 77 87 96 99 103 94 71 43 21 12
13 12 13 13 12 13 11 11 11 9 18 44 67 80 87 93 99 101 100 101 101 100 102 102 101 102 102 102 102 100 96 92 90 88 86 84 80 76 71 61 51 32 21 56 89 70 62 91 106 102 100 97 94 91 89 90 89 89 91 94 98 101 100 101 104 106 100 96 101 105 105 104 98 91 86 85 93 99 101 100 84 57 33 17 11
14 14 14 13 13 13 11 12 11 11 27 56 77 85 92 98 102 102 100 101 101 101 103 103 102 102 102 101 100 100 98 96 95 93 91 86 80 75 67 57 46 27 23 65 92 69 66 97 107 103 101 99 99 99 98 100 99 98 99 98 99 101 101 104 107 107 102 99 103 107 105 104 101 94 88 90 95 99 103 96 72 45 25 14 11
15 15 14 14 14 13 12 12 11 17 40 68 84 91 97 102 104 103 101 101 101 101 103 103 103 104 104 102 100 99 99 98 97 94 90 84 76 70 62 52 41 23 27 73 94 70 71 100 108 103 100 98 101 101 100 102 101 100 102 100 100 102 104 107 108 105 102 100 103 104 103 104 103 95 90 94 97 100 102 89 59 34 20 12 10
16 16 16 15 15 13 12 13 13 24 51 77 88 94 99 102 103 102 101 102 102 101 102 103 103 103 104 103 101 100 98 97 95 89 84 77 70 65 57 47 37 21 32 79 97 74 75 99 108 105 101 98 100 100 100 101 100 100 101 101 102 104 105 107 107 105 100 97 98 101 102 104 103 97 94 98 101 101 98 80 48 26 17 11 9
18 17 17 15 15 14 13 13 16 28 56 81 90 94 99 102 102 103 102 102 102 102 102 103 102 102 102 102 100 98 95 94 90 83 77 71 63 58 51 44 34 19 34 83 103 82 79 97 107 107 104 101 100 99 100 100 100 101 100 99 102 105 106 106 107 105 98 93 96 100 103 105 103 99 98 100 103 102 91 68 40 22 14 10 9
18 18 17 16 15 14 13 14 19 34 61 84 93 96 99 101 102 102 102 103 104 103 103 103 102 102 101 99 97 94 90 87 82 75 70 63 57 52 46 42 32 19 38 88 109 94 86 95 105 108 104 100 99 99 100 100 100 102 100 98 100 104 106 106 104 102 98 96 101 105 106 106 104 100 100 101 102 99 84 57 32 19 13 9 9
20 19 18 16 14 14 14 15 22 38 64 87 96 98 100 102 102 102 102 102 103 103 103 103 102 100 99 97 92 87 82 78 72 67 62 56 51 47 42 39 29 20 47 94 110 101 94 93 101 107 104 101 99 98 100 101 99 101 100 99 101 105 107 106 102 101 101 101 104 106 104 104 103 101 100 101 101 95 74 46 25 16 12 9 9
20 19 17 16 14 14 14 15 21 35 58 82 96 101 101 101 100 100 99 100 100 100 101 100 99 97 94 92 86 78 73 69 63 60 55 50 47 43 38 36 24 21 57 100 109 102 97 94 99 106 105 103 100 97 101 102 98 98 100 100 103 105 107 107 104 102 102 103 105 106 104 103 103 101 100 101 100 87 61 35 20 14 11 9 9
21 19 17 15 13 13 13 16 21 29 44 63 80 94 99 99 97 96 95 95 95 95 96 96 95 93 88 84 79 72 67 62 57 54 50 45 44 39 34 32 20 23 66 106 109 102 97 95 101 106 105 105 100 95 100 102 98 98 99 99 101 104 106 107 106 103 102 103 106 107 106 104 102 100 101 101 96 77 49 28 18 13 10 9 9
21 18 16 14 13 13 13 14 17 22 30 42 55 71 83 90 92 90 88 88 88 89 90 88 87 85 81 77 72 66 62 57 52 50 45 41 40 34 30 27 17 29 75 108 107 103 100 97 101 104 104 106 100 94 97 100 99 101 102 99 99 101 105 107 105 103 103 103 106 108 106 103 100 100 101 100 90 66 40 25 17 12 10 9 8
20 17 15 13 12 13 13 15 16 18 22 29 38 50 62 72 81 83 81 80 80 81 82 79 77 76 74 72 67 62 58 54 49 46 42 38 36 30 27 23 17 38 86 109 104 103 103 100 101 101 101 103 100 95 97 99 100 102 102 100 99 101 104 105 104 104 103 103 106 108 105 101 99 100 102 98 81 55 33 23 14 10 10 9 7
19 15 13 12 13 14 15 16 17 18 19 22 28 36 46 57 67 73 75 76 74 74 73 70 68 67 65 64 62 57 54 49 45 43 38 35 32 26 23 20 19 49 94 107 100 101 102 100 102 101 100 101 101 99 99 99 101 101 100 101 102 101 100 101 102 104 104 104 107 106 103 100 99 101 102 91 69 45 29 20 13 10 11 9 7
16 14 13 13 14 15 16 18 19 20 21 21 23 27 35 46 56 64 70 74 74 73 70 66 63 60 58 56 54 52 49 45 42 40 35 32 28 22 21 19 24 58 97 104 98 101 102 100 101 100 100 101 101 101 101 99 100 101 100 101 102 98 95 95 99 103 104 106 107 103 100 101 100 101 99 82 57 37 24 16 12 10 10 8 7
15 13 13 14 15 16 18 19 20 20 21 22 23 24 28 35 46 56 64 70 73 73 70 66 62 59 56 53 50 48 45 42 41 37 33 30 25 20 20 19 30 66 98 102 99 102 102 100 100 99 101 103 101 101 101 99 100 101 100 102 100 96 94 95 97 100 103 106 107 102 99 101 101 98 90 72 49 30 19 13 11 11 9 8 7
14 13 14 15 17 18 19 20 21 22 22 22 23 23 25 28 34 45 55 63 69 71 70 67 63 60 58 54 50 48 44 41 40 35 31 27 22 19 20 21 37 75 101 101 100 103 102 100 100 99 101 103 102 101 101 100 101 101 101 102 101 97 96 96 97 99 103 107 107 103 100 101 100 92 78 61 41 24 15 12 11 11 9 7 8
13 13 15 17 18 20 22 23 24 24 24 24 23 23 24 25 27 34 45 56 62 64 66 66 63 60 58 54 51 47 43 41 37 32 29 25 20 20 20 23 47 85 103 100 101 105 103 102 102 100 101 102 101 101 101 100 101 101 101 100 99 97 96 97 99 102 105 108 106 103 101 101 96 84 66 48 31 18 12 12 11 10 9 8 8
14 15 17 19 21 22 23 24 25 27 28 28 25 23 23 24 26 28 35 46 54 56 58 60 59 58 56 52 49 46 42 39 34 30 27 23 20 21 20 27 59 94 103 99 102 104 102 104 105 103 102 101 101 101 101 101 101 103 103 100 97 96 96 98 103 105 105 106 105 103 101 97 88 72 52 34 22 14 11 12 11 10 9 8 9
15 17 19 21 22 23 24 25 28 30 31 31 30 28 24 23 25 27 29 36 43 47 50 51 52 52 50 48 45 42 39 36 31 27 25 22 20 21 20 33 69 99 102 99 102 101 100 102 103 103 101 100 101 101 100 101 103 105 106 101 95 95 97 101 105 105 103 103 103 102 98 90 77 61 40 24 16 13 12 13 12 10 10 9 10
16 19 21 22 23 24 25 27 29 31 30 30 31 32 30 27 27 28 30 33 36 39 43 44 44 45 44 42 41 38 36 33 29 26 24 21 20 21 21 38 76 101 101 99 101 100 100 101 100 100 101 100 100 100 100 103 106 106 105 101 98 99 102 104 105 104 102 102 102 99 93 81 67 50 31 18 15 15 14 13 12 11 10 11 13
18 20 22 24 24 24 26 29 30 28 25 25 29 34 35 33 33 33 34 34 33 33 36 39 39 40 39 38 37 34 32 30 27 24 23 20 20 20 21 42 81 102 100 99 101 100 100 101 100 100 101 100 100 100 100 103 107 107 106 104 103 104 105 104 103 102 101 102 100 94 84 72 57 40 24 17 16 16 15 14 13 12 12 13 16
20 22 24 25 24 26 29 31 29 24 21 24 35 47 49 43 37 36 38 38 35 31 31 32 33 34 35 35 33 31 30 28 24 23 22 19 20 20 23 47 86 103 99 99 102 100 100 101 100 100 101 101 101 101 101 104 106 106 105 104 103 103 102 101 102 102 102 102 97 86 73 59 44 29 19 16 17 17 17 16 14 14 15 17 19
22 24 25 25 25 27 31 31 27 23 23 27 40 60 71 65 51 41 39 40 40 36 31 30 30 29 29 31 30 28 27 25 22 22 20 19 20 20 26 55 91 103 99 100 101 100 101 101 100 100 101 100 100 100 101 105 106 104 102 101 101 101 101 101 102 102 102 99 89 75 61 47 32 21 17 17 18 18 19 18 16 17 20 22 23
24 25 25 26 26 28 32 32 27 25 31 37 44 58 73 78 70 56 45 41 42 41 36 32 30 28 26 26 26 25 25 22 21 20 19 19 21 22 34 67 96 102 99 101 101 100 101 101 100 101 100 100 101 100 100 103 104 103 102 101 100 100 100 101 101 102 100 92 79 66 52 38 25 18 17 17 17 18 20 20 20 22 26 28 30
26 26 26 26 27 31 34 33 28 29 38 47 52 57 65 73 74 68 56 44 40 41 38 33 29 27 25 24 23 23 22 20 19 19 18 18 22 29 47 79 101 102 99 101 101 100 101 100 100 101 100 100 101 100 100 101 101 101 101 100 100 101 100 100 101 102 97 87 73 60 45 30 21 18 17 17 18 19 21 23 25 28 32 34 37
29 28 27 26 28 33 37 34 31 35 44 51 54 57 59 61 64 66 63 53 43 38 37 33 29 26 24 23 22 21 20 19 18 18 18 23 34 50 72 93 102 101 100 101 100 100 101 100 100 101 100 100 100 100 100 101 100 100 101 100 100 101 100 100 102 100 93 82 68 51 36 24 18 17 17 17 19 20 23 26 29 33 38 42 45
33 31 29 27 28 34 39 37 33 38 49 55 56 55 55 55 55 56 58 56 49 41 36 33 30 27 25 23 23 21 19 19 19 20 26 37 50 69 91 102 101 99 100 100 100 100 101 100 101 100 100 101 101 100 100 100 100 100 100 100 101 100 100 102 102 96 87 77 59 39 25 20 18 18 17 17 19 23 26 30 33 37 44 50 54
39 36 32 29 30 34 40 40 35 39 51 58 59 56 54 53 51 49 49 50 49 44 38 34 31 29 26 24 23 21 21 22 25 31 41 51 59 74 93 102 100 100 101 100 100 101 100 100 101 100 100 100 100 101 101 100 100 101 100 100 101 100 100 103 100 90 82 71 50 28 20 19 19 19 18 18 20 26 31 34 37 41 47 55 61
43 40 35 31 31 35 42 43 38 39 50 60 62 59 55 52 51 49 48 47 46 45 41 37 33 31 29 26 24 24 25 28 34 44 55 63 70 84 97 102 100 100 101 100 100 101 100 100 101 100 100 100 100 100 100 100 100 101 100 100 101 100 101 103 99 88 77 63 42 25 21 21 18 19 20 19 22 28 35 40 43 46 50 56 63
44 42 38 33 31 35 43 47 42 40 48 60 65 64 61 57 55 53 51 50 50 48 45 41 36 33 32 29 26 26 30 35 42 53 67 77 86 95 102 102 100 101 100 100 100 100 100 101 101 100 100 101 100 100 100 100 101 102 101 100 100 100 101 103 99 87 71 54 37 26 23 21 18 19 20 21 24 31 40 46 49 50 52 56 61
47 43 40 36 34 35 42 49 47 43 46 57 65 67 65 62 61 59 57 55 53 51 48 46 42 37 34 31 28 28 35 44 53 63 76 87 96 101 102 101 100 101 100 100 100 100 100 100 101 100 100 100 100 101 100 100 100 101 100 100 100 100 101 102 97 84 66 49 36 28 24 21 19 19 21 22 26 33 42 49 52 52 53 55 58
49 43 41 39 38 38 42 49 51 47 46 52 61 67 68 66 64 64 62 59 57 54 51 48 45 40 36 33 31 30 38 53 67 74 81 91 99 102 101 100 100 100 100 100 100 100 100 100 100 100 100 100 100 101 100 100 100 100 100 100 100 100 101 102 97 84 67 50 37 28 22 20 20 20 21 23 27 34 43 51 55 55 55 56 56
55 46 41 41 41 40 43 49 53 51 47 49 56 62 66 66 64 63 63 62 59 57 54 50 47 43 38 34 32 33 41 59 75 82 85 93 101 102 100 100 101 100 100 100 100 100 100 100 100 100 100 100 100 100 100 100 100 100 100 101 101 101 101 101 97 86 70 52 37 27 21 20 21 20 21 23 27 34 44 53 58 60 59 58 57
66 56 47 43 43 43 45 51 56 56 52 50 52 57 61 63 63 61 62 62 61 58 55 52 49 45 40 35 33 34 43 61 79 87 89 94 100 102 100 100 101 100 100 100 100 100 100 100 100 100 100 100 100 100 100 100 100 100 101 101 101 101 101 101 97 87 71 52 36 26 22 21 21 21 21 23 27 33 42 51 58 61 62 61 61
77 71 60 51 47 47 48 52 58 60 57 52 52 55 58 62 63 62 61 61 61 60 57 54 50 46 42 37 33 34 42 59 78 91 95 97 100 102 100 100 100 100 100 100 100 100 100 100 100 100 100 100 100 100 100 100 100 100 101 101 101 101 102 102 98 87 70 51 37 28 23 21 21 22 23 24 26 31 38 48 58 64 66 65 65
82 82 76 67 57 52 50 52 57 62 62 57 54 55 57 60 62 62 60 59 59 59 58 56 52 49 45 40 35 34 41 56 76 92 99 101 101 101 101 100 100 100 100 100 100 100 100 100 100 100 100 100 100 100 100 100 100 100 100 100 101 101 102 102 99 88 71 51 37 29 25 22 21 23 24 25 26 30 37 48 59 67 70 71 70
85 86 87 83 74 65 57 54 57 64 67 63 57 56 57 58 59 61 62 60 58 58 58 57 55 52 48 44 39 35 38 50 70 90 101 103 102 101 101 100 100 100 100 100 100 100 100 100 100 100 100 100 100 100 100 100 100 100 100 100 101 101 102 102 100 91 74 55 39 31 26 23 22 24 25 26 27 30 36 46 58 67 73 76 76
89 89 90 91 88 81 72 63 59 64 71 71 65 60 60 61 61 62 63 64 63 61 59 58 57 56 53 49 45 40 38 43 60 83 99 104 103 102 101 100 100 101 100 100 100 100 100 100 100 100 100 100 100 100 100 100 100 100 100 100 101 101 102 103 101 94 79 59 42 32 28 25 23 24 26 28 29 30 34 42 54 65 73 77 78
97 95 93 92 93 92 87 77 68 65 70 76 74 67 64 65 66 65 65 67 68 67 65 62 60 58 56 54 50 46 41 39 49 71 93 102 102 102 102 101 100 100 100 100 100 100 100 100 100 100 100 100 100 100 100 100 100 100 100 100 101 101 102 103 102 96 83 64 45 34 29 27 25 25 27 29 30 31 34 39 49 60 69 74 77
103 102 98 95 94 95 96 92 83 73 71 77 81 77 70 67 69 71 71 69 69 69 69 67 64 62 60 59 56 53 48 43 43 57 82 99 102 101 101 102 100 100 100 100 100 100 101 100 100 100 100 100 100 100 100 100 100 100 100 100 101 101 102 103 102 97 88 71 52 37 30 28 27 27 28 29 30 31 33 37 44 54 64 70 73
104 104 102 99 97 96 97 100 98 90 81 79 84 86 81 73 70 73 76 75 72 71 70 69 68 65 63 62 61 59 57 51 44 47 67 91 102 101 100 101 101 100 100 101 100 100 100 100 100 100 101 100 100 100 101 100 100 100 100 100 100 100 101 103 103 100 92 79 60 44 34 30 28 28 28 29 30 31 33 37 43 50 59 66 71
101 102 101 101 99 98 97 99 101 101 96 89 87 91 91 84 75 73 76 79 78 75 73 72 72 70 67 65 65 64 63 61 53 46 54 77 98 103 100 100 101 101 100 101 101 100 100 101 100 100 100 101 100 100 100 100 100 100 100 100 100 100 100 101 102 102 97 86 69 51 39 33 31 30 29 29 29 30 32 36 41 48 56 65 70
100 99 98 98 98 98 98 98 99 102 103 100 96 96 98 96 88 80 78 81 83 81 77 74 74 74 72 70 68 68 68 68 65 56 50 62 87 103 103 99 100 101 100 100 101 101 100 100 100 100 100 100 101 100 100 100 100 100 100 100 100 100 100 101 101 103 102 94 80 61 46 37 34 33 32 30 29 29 31 34 39 45 53 62 70
99 98 98 98 98 98 98 99 99 101 104 106 105 103 104 106 102 92 84 83 86 87 84 80 77 77 77 75 73 72 71 72 73 69 59 55 71 93 104 101 99 100 101 100 100 101 101 100 100 100 100 100 100 100 101 100 100 100 100 100 100 100 100 100 100 102 103 101 92 76 58 44 37 36 35 32 30 30 30 32 37 43 50 61 71
Wind_Speed
76 78 79 81 82 82 83 83 83 83 83 83 82 81 80 79 79 80 79 78 77 75 74 73 72 72 71 71 71 70 70 70 70 71 70 69 69 68 68 67 67 66 67 67 68 68 68 68 66 64 61 58 55 50 47 44 44 45 46 45 46 49 52 54 54 53 54 58 60 61 63 64 63 62 62 61 61 61 61 61 62 64 65 66 66
78 79 80 82 82 82 83 82 83 83 82 82 81 79 76 75 75 76 76 75 75 74 73 72 71 70 70 69 69 69 68 68 69 69 69 67 67 66 65 65 65 65 65 65 65 65 65 63 60 58 56 52 48 45 43 44 45 45 47 48 47 48 49 51 52 52 52 55 58 58 60 61 60 59 59 58 58 59 59 60 61 63 64 64 65
78 80 81 82 83 83 83 82 83 83 82 81 78 75 73 71 71 72 73 72 72 71 71 70 69 68 68 67 67 67 66 66 67 68 68 66 65 65 64 63 63 63 63 63 63 62 61 59 56 54 51 47 42 41 41 44 45 45 45 45 45 44 45 48 50 51 51 52 55 56 57 58 57 56 56 56 56 57 57 58 60 61 62 63 63
79 80 81 82 82 83 82 82 83 82 81 79 75 72 69 68 67 68 69 69 69 68 68 67 67 67 66 66 65 65 65 65 65 66 66 65 63 63 63 62 62 61 61 60 60 59 58 55 52 50 47 43 41 39 40 41 42 41 42 42 41 42 43 45 47 49 50 51 52 53 54 55 55 54 54 54 54 55 56 57 59 61 61 61 61
79 80 81 81 81 82 82 82 82 81 79 76 72 69 66 64 64 65 66 66 66 66 66 66 65 65 64 64 63 63 63 63 63 64 64 63 63 62 62 61 60 59 59 58 57 57 55 52 50 47 44 42 42 39 38 40 42 41 41 42 42 42 42 43 45 47 49 49 50 51 51 52 52 52 52 52 53 54 55 56 58 59 59 59 59
79 79 80 81 81 81 81 82 81 80 77 72 68 65 63 62 62 63 64 64 65 65 64 64 64 63 63 62 62 61 61 61 61 62 62 62 61 61 60 59 58 58 57 55 55 54 52 49 48 45 42 41 44 41 38 40 45 45 43 41 42 42 41 42 44 46 47 48 48 49 49 49 50 49 50 51 52 53 54 55 57 57 57 57 57
79 80 80 81 81 81 81 82 81 78 74 69 65 62 60 60 60 61 62 62 62 62 62 62 61 61 61 60 60 60 59 59 60 60 60 60 60 59 58 57 56 55 55 53 53 52 49 48 46 43 42 41 43 44 40 38 41 43 42 41 41 42 41 40 42 44 46 46 46 47 47 47 47 47 49 51 52 52 53 54 54 55 55 55 55
79 80 81 81 81 82 82 82 80 77 72 67 62 60 59 59 59 60 60 60 60 60 60 59 59 59 59 58 58 58 58 58 58 58 58 58 57 56 56 56 55 54 53 52 51 49 47 46 44 42 42 41 42 45 44 43 42 43 43 43 42 41 40 40 40 42 44 44 45 46 46 46 46 47 48 50 50 51 52 52 52 53 53 52 53
80 80 81 82 82 82 82 82 79 75 69 64 60 58 58 57 57 58 58 57 57 57 57 57 57 57 57 57 57 57 56 56 56 57 56 56 55 55 54 54 53 52 51 50 49 47 45 45 43 42 43 42 43 44 46 47 47 47 46 44 42 40 40 40 40 41 43 43 44 45 45 45 45 46 47 49 49 49 50 51 51 51 51 51 51
80 81 81 82 83 83 82 81 77 72 66 62 59 57 56 56 56 55 55 55 55 55 55 55 56 56 56 55 55 55 55 55 54 54 54 54 53 53 53 53 51 50 49 48 46 45 44 44 42 42 43 42 43 45 46 47 47 46 45 44 41 39 39 40 39 40 42 43 44 45 44 44 45 46 46 48 48 48 49 50 50 50 49 49 49
81 82 82 83 83 83 82 79 74 69 64 60 58 56 55 55 55 54 54 53 53 53 53 54 54 54 54 54 53 53 52 52 52 52 52 52 52 52 51 51 50 48 48 46 44 43 44 43 41 41 42 42 41 42 43 44 44 43 43 42 41 39 39 39 39 40 42 42 43 44 44 44 45 44 44 46 47 48 48 49 48 48 48 47 47
82 83 83 83 83 83 81 77 71 66 62 59 57 56 55 54 54 53 53 53 53 53 53 53 53 53 52 52 51 51 50 50 50 51 51 51 51 51 49 48 48 47 46 45 42 42 43 43 41 40 42 42 41 39 39 40 41 41 41 41 40 39 39 39 39 40 41 42 44 43 44 44 44 43 43 46 47 47 47 48 47 47 46 46 46
83 83 84 84 84 82 80 75 69 64 61 59 57 55 55 54 54 53 53 53 53 53 52 52 52 52 51 51 50 49 49 49 50 50 50 50 50 50 48 46 45 46 45 43 41 41 42 42 40 39 41 42 40 39 38 38 39 40 41 40 39 38 39 39 39 40 41 42 43 43 44 44 43 42 43 45 46 47 47 47 46 45 45 44 44
84 84 84 84 84 82 78 74 68 63 60 58 56 55 55 54 54 54 53 53 53 52 52 52 52 51 51 50 49 48 48 48 49 49 49 49 49 48 47 45 44 44 44 42 40 41 42 42 40 39 41 41 40 39 39 38 38 39 41 40 38 37 39 40 40 40 40 40 41 42 43 43 42 42 43 45 46 46 46 45 45 44 44 43 43
85 85 85 84 83 81 77 72 67 62 59 58 56 55 55 54 54 54 53 53 53 52 52 52 51 50 50 49 48 48 48 48 48 48 48 48 48 47 46 45 43 42 42 41 40 40 41 41 40 40 41 41 41 40 39 38 38 39 40 41 40 38 39 40 42 41 39 39 40 42 43 42 41 42 43 44 45 45 45 44 44 44 43 42 42
86 86 86 85 82 79 76 71 67 63 60 58 57 56 55 54 54 54 53 53 53 52 52 51 50 50 49 49 48 47 47 48 48 48 47 47 47 46 45 45 43 41 40 40 40 40 41 40 39 39 41 42 42 41 39 38 38 38 39 41 41 41 40 40 42 41 40 39 40 41 41 40 41 42 42 44 44 44 44 44 43 43 42 42 41
86 86 86 84 81 78 74 70 66 63 61 60 58 58 57 55 55 54 53 52 52 51 51 50 50 49 49 48 48 47 47 47 47 47 47 47 46 46 45 45 43 39 38 39 40 39 40 40 39 39 40 41 41 40 39 38 38 37 38 40 42 43 42 41 40 40 39 39 40 40 40 40 41 41 42 43 44 44 44 43 42 42 41 41 40
87 86 86 83 80 76 72 69 66 64 62 60 59 58 58 57 56 55 54 53 52 51 51 50 49 49 49 48 48 47 46 46 47 47 46 46 46 45 44 43 41 38 37 38 39 39 38 39 39 39 39 40 40 39 38 37 37 37 38 39 41 42 43 41 39 38 39 39 39 39 39 40 40 41 41 42 43 43 43 42 41 40 40 40 40
87 86 85 82 78 74 71 69 67 65 62 61 60 59 58 57 57 56 55 54 53 52 51 50 49 49 49 48 47 46 45 45 46 46 45 45 44 43 42 41 38 36 36 38 39 38 37 38 39 39 39 39 39 39 37 36 36 36 38 39 39 41 42 42 40 38 38 38 38 38 39 39 40 41 41 42 43 43 42 41 40 40 40 39 39
87 86 83 80 76 74 72 70 68 66 64 61 60 59 58 56 55 55 54 54 53 52 52 51 49 49 49 48 47 47 45 45 45 45 44 42 42 41 40 39 37 36 37 38 38 37 36 37 39 40 39 38 38 38 37 36 35 36 37 38 38 41 42 41 40 39 38 38 37 38 38 39 40 41 41 42 42 42 41 41 40 39 39 39 38
87 85 81 78 75 73 73 71 69 67 65 62 60 58 57 56 54 53 52 51 51 51 51 50 49 48 48 48 47 46 45 44 43 43 42 40 40 40 38 36 36 36 36 36 37 36 36 37 39 40 39 38 36 36 37 35 34 36 37 38 39 41 41 40 40 39 38 37 37 38 38 39 40 41 41 42 41 41 41 40 39 38 38 37 38
86 83 79 76 75 73 72 70 67 65 64 62 60 58 57 55 54 52 50 49 49 49 48 48 48 47 47 47 46 45 44 43 42 41 40 38 38 38 36 35 36 36 35 35 35 35 36 37 38 39 39 37 35 35 36 35 34 35 37 39 40 40 40 40 40 39 37 36 36 37 38 39 40 40 41 41 41 40 40 39 38 37 37 36 37
84 81 78 75 74 71 68 66 64 62 60 59 58 56 55 54 53 51 50 48 48 47 47 47 46 46 45 45 45 44 43 42 40 39 38 37 36 36 35 34 35 34 34 34 35 35 35 36 37 38 38 36 34 35 36 35 34 35 37 39 39 40 40 39 39 38 36 36 36 37 38 39 40 40 40 40 40 39 38 38 37 37 37 36 36
82 79 77 74 71 68 65 63 61 60 58 57 55 54 53 52 51 50 49 48 48 47 46 46 45 44 44 44 44 42 41 40 38 37 36 35 35 34 33 33 34 33 33 34 35 34 34 35 36 37 38 36 34 34 35 35 34 35 37 38 39 40 39 39 38 37 35 35 36 37 39 39 39 39 40 40 39 38 38 38 37 37 37 36 36
80 77 75 72 68 64 62 61 60 59 57 56 54 52 50 49 49 48 47 48 48 47 46 45 44 44 43 42 42 41 39 38 37 35 34 34 33 33 32 33 32 32 32 35 35 33 32 33 34 35 36 36 34 34 34 34 35 36 38 39 39 39 39 38 37 35 34 35 37 38 39 39 39 39 39 39 39 38 38 38 37 36 36 36 36
78 75 72 68 65 62 61 60 59 58 57 55 54 52 49 48 46 45 44 45 46 46 45 44 43 43 42 41 40 39 38 36 35 33 32 33 33 32 32 33 32 31 32 35 35 33 32 32 32 33 35 35 34 34 34 34 35 37 38 39 39 39 38 37 36 34 34 35 37 38 39 40 39 39 39 39 39 38 37 37 36 36 36 36 36
76 73 69 65 62 62 61 59 58 56 55 53 52 50 48 46 45 42 41 42 43 44 44 44 43 41 40 39 39 38 36 34 33 32 31 32 33 32 33 33 32 31 33 35 36 34 33 32 32 33 34 34 34 34 34 35 36 37 38 38 38 37 36 35 34 33 34 35 37 39 40 40 40 39 39 39 38 37 36 36 36 36 35 35 35
74 70 66 63 62 61 61 59 58 56 53 50 49 47 46 44 42 40 38 38 39 39 40 41 42 41 39 37 36 36 34 33 32 31 31 32 33 33 33 33 32 31 33 35 35 35 34 33 33 33 33 34 34 34 34 35 36 37 37 37 37 36 34 33 32 32 34 36 38 40 40 40 40 39 38 38 37 36 35 36 36 35 35 34 35
71 66 62 61 61 61 60 59 57 55 51 46 43 43 43 41 39 36 34 34 35 35 35 35 37 37 37 35 34 33 32 32 31 31 31 32 32 33 33 33 32 32 34 35 34 34 34 34 33 33 34 34 34 34 35 36 36 37 37 37 36 35 33 32 32 33 35 37 39 40 41 41 40 38 37 37 36 35 36 36 36 35 34 34 34
67 62 60 60 60 60 59 58 56 52 48 42 38 37 39 40 39 34 30 29 31 32 31 30 31 32 32 32 31 31 30 30 30 30 31 32 32 32 33 33 32 32 34 35 34 33 33 33 34 34 34 34 34 35 36 37 37 37 37 36 35 34 33 34 35 37 38 39 40 41 41 40 39 37 37 36 36 35 35 35 35 34 33 33 34
64 60 58 59 59 59 58 57 54 49 44 40 36 32 32 36 38 37 31 27 27 29 29 28 27 27 28 28 28 28 28 28 28 29 30 31 31 32 32 32 32 32 34 34 34 33 33 33 34 34 34 34 34 35 36 37 36 36 36 35 35 34 34 35 37 38 39 40 40 41 41 40 39 37 36 36 35 35 35 34 33 32 32 33 34
62 59 58 58 59 59 57 55 52 46 41 38 35 32 29 29 32 36 34 29 26 26 27 27 26 26 25 25 25 26 27 27 28 29 30 30 30 31 32 32 32 32 33 34 34 33 33 33 34 34 34 34 35 35 36 35 35 35 35 34 34 34 35 36 38 39 40 41 41 42 41 40 38 37 37 36 35 34 34 33 31 31 31 33 34
61 59 58 57 58 57 56 54 50 45 40 36 34 32 30 27 26 29 32 31 29 27 26 26 25 25 24 23 24 24 25 26 27 28 28 29 29 30 31 32 32 32 32 33 34 33 33 33 34 34 35 35 35 35 35 35 34 35 34 34 34 34 35 36 38 39 40 41 41 41 40 39 39 38 36 34 34 33 33 32 31 30 31 33 35
60 58 58 57 57 56 55 53 49 44 40 37 34 32 30 29 27 26 26 28 29 29 27 26 24 24 23 22 22 23 24 25 26 26 27 28 29 30 31 32 32 32 33 33 34 34 33 34 34 34 35 35 35 35 34 34 34 34 34 34 34 34 35 36 38 40 41 41 40 39 39 39 38 36 34 33 33 33 33 31 31 31 32 33 35
58 57 56 56 55 54 53 51 48 43 39 36 34 32 30 29 28 26 25 24 24 26 27 26 25 23 22 21 21 22 23 24 25 25 26 28 30 31 32 32 33 33 33 33 34 34 34 34 34 35 35 35 35 35 34 35 35 35 35 34 34 35 36 38 39 41 41 40 39 39 39 38 37 35 33 32 32 33 33 31 30 30 31 33 35
57 55 54 54 53 52 51 50 47 43 39 36 34 32 31 29 27 26 25 24 23 23 24 24 24 22 21 20 20 20 22 24 25 25 26 28 30 31 32 32 33 33 33 34 34 34 35 35 35 35 35 35 35 35 35 35 35 35 35 35 35 36 37 38 40 41 40 40 39 38 38 37 36 34 33 32 32 32 32 31 30 30 31 33 34
56 54 52 52 51 50 50 48 46 43 39 37 34 33 31 29 28 26 25 23 22 21 21 22 22 21 20 20 19 19 21 24 25 25 26 27 29 30 31 32 33 33 33 34 34 34 35 35 35 35 35 35 35 34 34 35 35 35 35 36 36 37 38 39 40 41 41 40 39 38 38 37 35 34 33 32 31 31 31 31 30 31 32 33 34
56 54 52 50 49 49 48 46 45 42 39 36 35 33 31 29 28 27 25 24 22 21 20 20 21 20 20 19 19 19 20 23 25 26 26 27 28 29 31 32 33 34 34 34 34 35 35 35 35 35 35 35 35 35 35 35 35 36 36 36 37 37 38 39 40 41 41 40 40 39 38 36 35 34 33 32 31 31 32 32 31 32 32 33 34
54 53 51 50 48 47 46 45 43 41 38 36 34 32 31 29 28 26 25 24 22 21 20 19 19 19 19 19 19 19 19 21 24 26 27 27 28 29 30 32 33 34 35 35 35 35 35 35 35 36 36 35 35 35 36 36 36 36 36 36 36 37 38 39 40 41 41 40 40 39 38 36 35 34 33 32 31 31 32 32 32 32 33 33 33
52 51 50 48 47 46 45 44 43 41 38 35 33 31 30 29 27 26 24 24 23 21 20 19 19 18 18 18 18 18 19 20 23 26 27 28 28 29 30 32 33 35 36 36 35 35 36 36 36 36 36 35 35 36 36 36 36 36 36 36 36 37 37 38 39 40 40 40 39 39 38 36 35 34 33 32 31 31 32 32 32 33 33 33 33
51 50 49 47 46 44 44 43 42 41 38 36 33 31 29 28 27 25 24 23 22 22 21 19 19 18 17 17 18 18 19 20 22 25 27 28 28 29 30 32 33 35 36 36 36 36 36 37 37 36 36 36 36 36 36 36 36 36 36 36 36 36 37 38 39 39 39 39 39 38 38 37 35 34 33 32 32 32 32 32 33 33 33 34 33
50 49 48 46 45 43 42 41 40 40 38 36 33 31 29 28 26 25 24 22 22 21 21 20 18 18 17 17 17 18 19 20 21 24 27 29 29 30 30 31 33 34 36 36 36 36 36 37 37 37 36 36 36 36 36 36 35 35 35 35 36 36 37 38 39 39 39 39 39 38 38 37 36 35 34 33 32 32 33 33 33 33 33 33 33
50 48 47 46 45 43 42 40 39 38 37 35 33 31 29 27 26 24 23 22 21 20 20 19 18 17 17 16 17 17 18 20 21 23 26 28 30 30 31 32 33 34 35 36 36 36 36 37 37 37 37 36 36 36 36 36 35 35 35 35 36 36 37 38 39 39 39 39 39 38 38 37 36 36 35 34 33 33 33 34 34 34 34 34 33
49 48 47 46 45 43 42 40 39 38 36 35 33 31 29 27 26 24 23 22 21 20 19 18 18 17 17 16 16 17 18 19 21 23 25 28 30 31 31 32 33 34 35 35 35 36 36 37 37 37 37 37 37 36 36 35 35 35 35 35 35 36 37 38 39 39 39 39 39 39 38 37 37 36 35 34 33 33 34 35 35 35 35 34 34
50 48 47 46 44 43 41 40 38 37 36 35 33 32 29 27 26 24 23 22 21 20 19 18 18 17 16 16 16 16 18 19 20 22 24 27 30 31 31 32 33 34 35 35 35 36 36 37 37 38 38 38 38 37 37 36 35 35 35 35 36 36 37 37 38 39 39 39 39 39 39 38 37 36 35 35 34 34 34 35 36 37 36 36 35
50 48 47 46 44 42 41 39 38 36 35 34 33 31 30 28 26 24 22 22 21 20 19 18 17 17 16 16 16 16 17 18 20 22 24 26 29 31 32 33 33 34 35 35 35 36 36 37 37 38 38 38 38 38 37 37 36 35 35 35 35 36 36 37 38 39 39 40 40 39 39 38 37 37 36 35 34 34 35 36 37 37 37 37 37
49 48 47 45 44 42 40 39 37 36 34 33 32 31 30 28 26 24 22 21 20 19 19 18 17 17 16 16 16 16 17 18 19 21 23 25 28 30 33 33 34 34 34 35 35 36 36 37 37 38 38 38 38 38 37 37 37 36 36 36 36 36 36 37 38 39 39 40 40 39 39 38 38 37 37 36 35 34 35 36 36 37 38 38 38
49 48 46 45 43 42 40 39 37 35 33 32 31 30 29 28 27 25 23 21 20 19 19 18 17 16 16 16 15 15 16 17 18 21 23 24 26 29 32 34 34 35 35 35 35 35 36 36 37 38 38 38 38 38 38 37 37 37 36 36 36 36 36 37 37 38 39 39 40 40 39 39 38 38 37 36 35 35 35 36 36 37 38 38 38
49 48 46 44 43 41 40 38 36 35 33 31 30 30 29 28 27 25 24 22 21 19 18 18 17 17 16 16 15 15 16 16 18 19 22 24 26 28 30 33 34 35 35 35 35 35 35 36 37 38 38 38 38 38 38 38 38 37 37 37 37 37 37 37 37 38 39 39 40 40 39 39 39 38 38 37 36 35 35 36 36 37 37 38 38
50 48 46 44 42 40 39 38 36 35 33 31 30 29 28 27 26 25 24 23 22 20 19 18 17 17 16 16 15 15 15 16 17 18 20 23 25 28 29 31 34 35 36 36 36 36 36 36 36 37 38 38 38 38 38 38 38 38 38 38 37 37 37 37 37 38 39 39 40 40 40 40 40 39 39 38 37 36 36 36 36 37 37 37 38
49 48 46 44 42 40 39 37 36 35 33 32 30 28 27 27 26 25 24 23 22 21 20 19 18 17 17 16 16 15 15 15 16 17 19 21 24 27 29 31 33 34 36 36 36 36 36 36 37 37 38 38 39 39 39 39 39 38 38 38 38 38 38 37 37 38 38 39 40 40 40 40 40 40 39 38 37 37 36 36 36 36 37 37 38
Wind_Direction
314 313 313 312 310 309 308 306 305 303 302 299 296 292 289 284 281 280 279 279 279 279 279 279 279 279 279 279 279 280 280 280 280 280 280 279 279 279 280 281 282 283 283 284 285 286 289 290 288 285 283 282 279 266 249 241 241 241 238 235 235 237 240 241 237 233 233 234 235 236 234 233 232 233 234 236 237 238 240 241 241 241 240 240 240
314 313 313 312 311 309 308 307 306 305 304 301 298 294 290 286 282 280 280 279 279 279 278 278 278 278 278 278 279 279 279 279 280 279 279 279 279 280 280 281 282 282 283 284 285 287 289 288 285 281 279 278 270 256 245 241 240 239 238 237 237 239 242 242 239 234 231 231 233 235 234 233 233 234 235 236 238 239 240 241 240 238 238 239 239
313 313 313 312 311 310 309 308 308 307 306 303 299 295 291 286 283 281 280 279 279 279 278 278 278 277 278 278 278 278 278 279 279 279 279 280 280 280 280 281 281 282 283 284 285 287 288 286 281 276 274 270 258 249 249 246 241 239 239 238 237 239 242 241 238 234 229 228 230 233 234 233 232 233 235 236 238 240 240 239 238 237 237 238 239
313 313 313 312 311 310 310 310 309 309 308 305 300 297 292 287 283 281 281 280 280 280 279 279 278 278 278 277 277 278 278 278 278 278 279 280 280 280 280 280 281 282 284 284 285 288 287 282 278 273 268 259 248 249 254 247 240 238 237 236 237 239 243 241 236 233 228 226 228 231 232 232 232 234 235 236 238 240 239 238 237 237 238 238 238
313 313 312 311 311 310 310 311 311 310 308 305 300 297 292 287 284 282 282 281 281 280 280 279 279 278 278 277 277 277 277 277 277 277 279 279 279 280 280 281 282 282 284 284 284 287 284 278 275 269 261 251 244 249 254 245 239 238 236 236 240 241 242 240 235 231 228 226 227 229 231 232 232 234 235 237 238 239 239 237 236 237 238 239 239
313 312 312 312 311 311 311 312 312 311 308 304 300 297 292 287 285 284 283 282 281 280 280 279 279 278 278 278 278 277 277 277 277 277 278 278 279 279 279 280 281 282 284 283 283 286 281 274 273 265 254 246 242 246 252 245 239 239 238 239 241 242 241 237 234 231 228 225 226 229 231 232 233 234 236 237 238 239 238 237 237 237 238 239 239
313 313 313 312 312 312 313 313 313 312 308 303 299 296 293 289 287 285 284 283 282 281 280 280 280 280 279 279 278 277 276 276 276 276 277 277 278 278 279 280 281 282 283 281 282 285 278 272 271 261 248 244 242 244 247 243 238 238 239 240 242 242 239 235 233 230 227 226 226 229 232 232 233 235 237 237 238 238 238 237 237 237 238 239 239
314 314 314 313 313 314 314 314 314 312 308 302 298 296 293 291 288 287 286 284 283 283 282 281 281 281 280 279 279 278 277 277 277 277 278 278 278 278 279 280 281 282 281 279 281 282 274 269 269 259 246 242 241 241 243 242 240 240 242 243 243 241 235 232 231 229 227 226 226 228 231 232 234 236 237 237 238 238 238 237 237 237 237 239 239
315 315 315 315 314 315 315 315 314 311 306 301 298 296 294 292 290 288 286 285 284 283 283 282 281 280 280 280 279 279 279 278 278 278 278 278 278 279 279 280 281 281 279 277 280 279 271 268 267 257 247 242 241 241 243 244 244 244 245 244 242 238 233 229 228 227 226 225 225 227 230 232 235 237 237 238 238 238 237 236 236 236 237 238 239
316 316 316 315 315 316 316 315 314 310 305 301 298 297 295 292 290 288 286 285 284 283 283 283 282 282 281 281 280 280 280 280 279 279 279 279 279 279 279 280 280 279 277 275 278 276 269 267 265 256 248 245 244 245 245 246 246 244 243 242 240 236 231 227 227 227 225 224 225 227 229 233 236 236 237 239 239 237 236 235 235 236 237 238 238
317 317 316 316 316 316 316 315 313 309 304 300 298 297 295 293 290 288 286 285 284 284 284 284 284 284 283 283 282 282 281 281 280 280 279 279 278 278 278 279 279 278 275 273 275 272 267 266 265 256 248 246 247 247 246 245 245 242 238 237 237 235 230 227 227 226 225 225 226 228 231 235 237 237 237 239 238 236 235 234 234 236 237 238 238
318 317 317 317 317 317 316 315 312 307 302 300 298 297 295 293 291 289 288 287 286 286 286 285 285 285 284 284 283 282 282 281 280 280 279 279 279 278 278 278 278 276 272 271 272 269 265 265 264 256 247 244 245 246 245 242 240 237 234 233 234 233 229 227 227 227 226 226 227 230 233 236 238 238 238 238 237 235 233 233 233 235 236 237 237
318 318 318 318 317 317 316 314 311 306 302 299 298 296 295 293 292 290 289 288 288 287 287 286 285 285 284 283 283 282 282 281 281 280 280 279 279 279 278 278 277 274 270 268 269 267 264 264 262 254 246 242 242 243 242 239 235 233 231 230 231 232 230 228 228 228 227 227 229 232 235 237 239 238 238 237 235 233 232 231 232 234 235 237 237
319 318 318 318 317 316 315 313 310 306 302 300 298 296 295 293 292 291 290 289 288 288 287 287 286 285 285 284 283 282 282 281 280 280 280 279 280 280 279 279 276 272 268 266 266 266 263 262 260 253 244 240 239 240 239 237 233 231 230 229 229 230 230 229 228 228 228 229 231 235 236 238 239 238 236 236 234 232 230 230 231 233 235 236 237
319 319 318 318 317 315 314 311 308 305 301 299 298 296 295 293 292 291 290 289 289 288 287 287 286 286 285 284 283 282 282 282 281 280 280 280 280 281 280 279 275 269 265 264 263 263 262 260 258 252 244 239 238 238 237 235 231 230 229 228 228 228 229 229 228 228 230 231 234 236 237 238 238 237 235 234 232 230 229 229 231 233 234 235 237
320 319 318 318 316 315 313 310 307 304 300 298 297 295 294 293 291 290 289 289 288 288 287 287 286 285 284 284 283 283 283 282 281 281 281 281 281 281 279 278 274 266 262 261 260 260 260 258 256 251 245 241 239 238 236 233 230 229 228 228 227 228 229 229 229 229 231 233 236 236 237 238 238 236 234 232 230 229 228 229 230 232 235 236 236
320 319 318 317 316 314 312 309 306 303 300 297 295 293 292 291 290 289 288 288 287 287 286 286 285 285 284 283 283 282 282 282 281 281 281 280 280 279 277 275 271 263 259 258 256 258 259 256 254 249 244 242 241 238 235 232 229 228 228 227 227 227 229 230 230 230 232 234 236 236 237 238 237 234 232 230 228 227 228 229 230 232 234 236 237
319 319 318 317 315 313 311 309 306 304 301 298 295 293 291 290 289 288 288 287 286 285 285 284 284 284 283 282 282 281 281 281 281 280 280 279 278 276 274 272 266 260 257 255 253 255 257 255 253 249 244 242 241 238 234 230 228 228 229 228 227 227 229 230 230 230 232 233 235 236 237 237 236 233 230 228 226 226 228 229 230 232 234 236 237
319 319 318 316 315 313 311 309 307 304 301 299 296 294 292 291 289 288 287 287 286 285 284 284 283 283 283 282 282 282 281 281 281 280 278 277 276 273 271 267 261 256 255 252 249 252 255 254 252 248 244 241 239 237 233 229 228 229 229 228 228 228 228 228 229 230 231 232 234 235 236 236 234 231 229 226 225 226 227 229 230 232 233 235 237
319 319 318 316 315 313 311 309 307 304 302 299 297 294 292 291 290 289 288 287 286 285 284 283 282 282 282 282 281 281 280 280 280 279 277 275 273 270 268 263 256 253 253 250 246 249 252 251 249 247 244 241 237 235 232 229 228 229 229 228 228 228 227 226 227 229 231 232 234 235 235 234 232 230 227 225 225 226 227 228 230 232 234 235 237
320 319 318 316 315 313 311 309 307 304 302 299 297 294 292 291 290 289 288 287 286 285 283 282 281 281 280 280 280 280 280 279 279 277 275 273 270 268 264 258 252 251 251 248 245 246 249 248 246 244 243 240 236 233 232 230 229 229 228 227 227 226 225 225 227 229 230 231 233 235 234 233 230 228 226 224 225 226 227 229 231 233 234 236 237
320 319 318 317 315 313 312 310 308 305 303 300 297 295 293 291 290 289 288 288 286 285 283 282 281 280 280 279 279 279 279 279 278 276 273 271 268 265 261 254 249 250 250 246 243 244 245 244 243 242 241 238 235 233 232 231 229 228 227 226 226 224 223 224 226 228 229 231 232 234 234 231 228 226 225 225 225 226 228 230 232 233 235 236 236
320 320 318 317 316 314 313 311 310 308 306 303 300 296 293 291 289 288 287 287 286 285 284 283 281 281 280 279 279 279 278 277 276 274 271 269 266 263 258 250 248 250 248 243 240 241 242 241 240 241 241 238 233 232 232 231 228 226 226 225 224 223 223 224 226 227 228 230 232 233 232 229 226 225 225 225 226 226 228 231 232 233 234 235 235
321 320 319 318 317 316 314 313 312 310 308 306 303 300 296 292 290 288 287 286 285 284 283 282 281 280 280 279 279 278 277 276 274 271 269 266 263 260 254 248 247 249 245 239 237 240 239 238 237 238 239 238 234 230 230 229 226 224 224 224 223 222 223 224 225 226 228 230 231 231 230 227 225 224 224 225 226 227 229 231 232 233 234 234 234
321 321 320 319 318 317 316 315 313 311 309 307 305 302 299 295 291 289 287 285 284 283 282 281 281 280 279 278 278 277 275 274 272 269 266 263 260 256 250 245 246 247 242 236 234 236 236 236 236 235 237 238 235 231 229 229 226 223 223 223 222 222 223 224 225 227 228 230 230 229 227 226 224 223 223 225 226 228 229 231 232 232 233 233 232
322 322 321 319 318 318 317 316 314 312 310 307 305 303 301 297 293 291 288 286 283 282 281 280 280 279 278 277 276 275 274 272 270 267 263 259 256 251 246 243 245 244 239 234 232 232 234 236 236 235 235 236 235 232 230 227 225 223 222 222 221 221 223 224 226 227 228 229 228 227 225 224 223 222 223 225 227 228 230 231 232 232 232 231 230
323 322 321 320 319 319 318 317 316 314 311 307 303 301 299 298 296 293 290 288 285 283 281 280 279 278 277 276 275 273 272 270 268 264 259 255 252 247 242 241 242 241 236 232 231 231 232 235 236 235 234 235 234 232 229 226 223 222 222 222 222 222 224 226 227 227 227 227 226 225 224 223 222 221 223 225 227 228 230 231 231 231 230 229 228
323 322 321 321 321 321 320 320 318 316 313 308 304 300 297 295 295 294 291 289 286 284 281 280 278 277 275 274 273 272 270 268 265 260 256 251 248 245 241 239 241 239 234 231 231 231 233 235 236 235 233 233 233 231 228 225 222 221 221 222 223 224 225 227 227 226 225 225 224 224 223 222 222 222 223 225 227 227 229 230 231 230 229 227 226
323 323 322 322 323 323 323 322 322 320 316 311 306 303 300 296 294 293 293 291 289 286 283 280 277 275 274 272 271 269 267 265 261 257 252 248 245 242 239 238 240 238 233 230 231 232 233 236 236 234 231 231 230 228 225 223 221 220 221 222 222 223 224 223 223 222 222 222 222 222 222 222 222 223 223 225 225 226 227 229 230 229 227 225 224
324 323 323 323 324 325 325 325 324 323 319 315 310 307 306 303 299 296 294 294 294 292 288 285 281 277 273 270 268 267 264 261 258 253 248 244 242 239 237 237 238 237 232 230 230 231 234 235 234 231 228 227 227 225 222 221 220 220 220 221 221 222 222 221 220 220 219 219 220 221 222 223 223 223 223 224 225 225 226 228 228 227 225 223 222
324 324 324 325 326 327 327 328 327 325 322 318 313 309 308 308 306 303 299 295 296 296 294 291 287 282 276 271 266 264 261 258 254 250 246 242 239 238 236 236 237 236 232 229 229 231 233 234 231 228 225 223 222 222 221 220 220 220 221 221 221 221 221 220 220 220 219 218 219 220 222 223 223 223 223 224 224 224 225 226 226 225 223 222 221
325 325 325 326 328 329 329 330 329 327 324 320 316 311 308 307 308 308 305 300 297 297 297 294 291 286 280 273 267 262 258 254 250 246 243 239 237 236 235 235 236 235 232 230 229 230 232 232 228 224 221 219 218 218 219 219 220 221 221 221 220 220 220 220 220 219 218 218 219 219 221 222 222 223 223 223 224 224 225 225 224 222 221 220 219
326 326 326 327 329 330 331 331 331 329 325 321 318 314 310 306 304 306 307 305 301 298 296 295 292 288 282 275 268 262 256 251 247 243 240 237 235 234 234 234 235 233 231 229 229 229 229 228 225 221 219 217 216 216 217 218 220 221 221 221 220 219 220 220 220 219 219 219 219 220 221 222 223 223 223 223 223 224 224 222 221 220 218 218 218
326 326 326 327 329 331 332 332 332 330 327 323 320 317 313 310 305 303 304 304 303 300 297 295 293 288 282 275 269 262 255 249 244 240 238 235 232 230 230 232 232 230 228 227 227 226 226 224 222 219 218 216 216 216 216 218 220 221 221 221 219 218 218 218 218 219 220 220 220 220 221 222 223 223 223 222 221 222 222 220 218 218 217 216 217
327 327 326 327 329 331 332 333 333 330 328 325 322 319 316 313 310 306 302 301 300 299 297 295 293 289 283 275 268 262 256 248 241 238 235 233 230 228 227 228 229 228 226 225 225 224 223 221 220 218 217 216 215 215 216 217 218 220 221 220 218 217 217 217 217 219 220 220 219 220 221 222 223 223 223 221 219 219 220 219 217 216 216 216 216
327 326 326 327 329 331 332 333 333 331 328 326 324 322 319 316 313 310 307 304 302 299 296 294 291 288 283 276 267 260 254 247 240 235 232 231 229 228 227 228 228 227 226 225 223 222 221 220 219 218 217 216 215 215 216 217 218 219 220 220 218 216 216 216 217 218 220 220 220 220 221 222 223 223 222 220 218 217 218 217 215 214 215 215 215
327 327 326 327 328 330 332 334 334 332 329 326 325 324 322 320 317 315 312 309 306 302 299 295 292 288 284 276 267 259 252 246 239 233 231 230 229 227 227 227 227 226 224 223 222 220 219 219 219 218 218 217 216 216 217 217 217 218 218 219 218 217 216 216 216 217 219 220 220 221 221 222 222 222 221 219 216 214 214 214 213 212 213 214 215
328 327 327 327 328 330 332 333 334 333 330 327 325 324 324 322 320 317 314 311 308 304 300 297 294 290 285 277 268 259 252 246 239 232 229 228 228 227 226 226 226 225 223 222 220 218 217 218 218 219 219 218 216 216 217 217 217 218 218 218 218 217 217 216 216 216 217 218 220 221 222 222 221 220 219 217 213 211 210 211 210 211 212 213 214
329 328 328 328 328 329 331 332 334 334 332 328 325 323 323 322 320 317 315 312 310 307 303 300 296 291 286 279 270 260 252 246 239 232 227 226 226 226 226 226 225 224 223 221 219 217 216 216 218 219 219 218 217 217 217 217 217 218 219 219 219 218 218 217 217 217 217 218 219 220 222 222 221 220 219 216 211 209 208 209 209 210 212 215 215
330 329 328 328 328 329 330 331 333 333 333 330 325 322 321 320 318 316 314 311 309 307 305 301 298 293 287 280 271 262 254 247 240 233 227 224 224 225 225 225 224 224 223 221 218 216 215 215 216 218 219 218 218 217 217 217 216 217 218 219 219 219 219 218 218 218 217 217 218 219 221 222 221 220 218 215 211 208 207 208 208 209 211 214 216
331 330 330 329 328 328 329 330 331 332 332 331 327 323 320 319 317 316 314 311 309 307 304 301 299 295 289 281 273 264 256 248 241 236 229 224 222 223 224 225 225 224 223 221 219 217 216 215 216 217 218 218 218 217 216 216 215 216 217 218 219 219 219 219 219 218 217 217 218 219 220 220 220 220 218 215 211 208 207 207 207 208 209 212 214
332 331 331 330 329 328 328 328 329 330 330 331 329 325 321 319 317 315 312 309 306 305 303 300 298 295 289 282 274 265 257 249 242 237 232 226 222 221 222 223 225 225 223 222 219 217 217 216 216 216 217 218 218 217 217 216 215 215 216 217 218 219 219 219 218 218 217 217 218 219 219 219 219 219 218 215 211 209 207 207 207 207 208 209 211
332 332 332 331 330 329 328 327 327 328 329 329 329 327 323 319 317 314 311 308 305 303 301 299 297 294 289 283 274 266 258 250 243 238 234 228 224 221 221 222 224 225 224 222 220 218 218 218 217 216 216 217 218 218 218 217 216 216 216 217 218 218 218 218 218 217 217 217 218 218 219 219 219 218 217 215 212 209 208 208 208 208 207 207 208
332 332 332 331 330 329 328 327 326 326 326 327 328 327 324 321 318 315 312 309 305 302 300 298 296 294 290 284 276 267 259 251 244 239 235 231 226 222 221 221 223 224 225 223 221 218 218 218 218 217 216 217 217 218 219 218 218 217 217 217 218 218 218 217 217 217 216 217 217 218 218 218 218 218 216 215 212 210 209 209 208 208 208 207 208
331 331 331 330 330 329 328 327 325 324 324 325 326 327 325 323 319 316 313 310 307 304 301 298 295 293 290 286 279 270 261 253 246 240 236 233 229 225 221 221 222 224 224 223 221 219 218 218 218 218 217 217 217 218 219 219 219 218 218 218 218 218 218 217 216 216 216 216 217 217 217 217 218 217 216 214 212 210 209 209 209 209 209 208 208
330 330 329 329 329 328 327 326 325 324 322 323 324 324 324 323 320 317 313 309 306 303 300 297 294 292 289 286 281 273 264 256 248 241 236 234 232 228 224 221 221 224 225 224 222 220 218 217 218 219 218 217 217 217 218 219 219 219 219 219 219 219 218 217 216 216 216 216 217 217 217 217 217 217 216 214 212 210 210 209 209 209 209 209 209
329 328 328 328 327 327 326 326 325 324 322 321 321 322 323 322 320 317 314 309 305 301 299 296 292 289 287 285 281 275 267 259 251 243 237 233 233 231 228 223 221 222 224 225 224 222 219 218 218 219 219 219 218 217 217 217 218 219 219 220 220 220 219 218 217 216 216 216 216 216 216 216 216 216 216 214 212 210 209 209 209 209 209 209 209
328 328 327 327 326 326 325 325 325 324 322 320 319 319 320 320 319 317 314 311 306 301 298 295 292 288 285 283 281 276 270 263 255 247 240 234 231 231 230 227 223 221 222 224 225 224 222 220 218 218 219 219 219 219 218 217 217 218 219 219 220 220 220 219 218 217 216 216 216 216 216 216 216 215 215 214 212 211 210 210 209 209 209 210 210
327 327 327 326 326 325 324 324 323 323 322 321 318 317 317 318 318 317 315 311 307 302 298 295 292 288 284 281 280 277 272 266 259 251 244 237 231 230 230 229 227 223 222 222 224 224 223 222 220 219 219 219 220 220 219 218 217 217 218 218 219 219 220 220 219 218 217 216 216 216 216 216 216 215 215 213 212 212 211 211 210 210 210 210 211
327 327 326 326 325 324 323 322 322 322 322 321 319 317 315 316 316 316 314 312 308 304 299 295 291 288 285 281 279 276 273 268 262 255 248 241 234 229 229 229 228 226 223 222 223 223 222 222 221 220 219 220 220 220 220 220 219 218 218 218 218 218 219 219 219 219 218 217 217 216 216 216 216 216 215 214 213 212 212 212 212 211 211 211 211
328 327 326 326 325 324 322 321 321 320 320 320 319 317 315 314 313 313 313 311 308 305 301 296 292 288 285 281 278 276 273 269 264 258 252 246 238 231 228 227 228 227 225 223 222 222 222 221 221 220 220 220 220 220 220 220 220 219 218 218 218 218 218 218 219 219 218 218 217 217 217 216 216 216 215 214 213 213 213 213 213 212 212 212 212